Wind_Speed
16 15 15 14 14 13 12 12 11 11 11 11 11 11 10 9 9 9 9 8 7 6 5 4 5 5 4 3 3 2 3 4 3 3 3 3 4 5 7 10 11 12 12 11 12 11 12 15 10 2 5 11 18 23 25 26 23 22 24 25 25 25 25 22 21 19 18 17 17 17 16 17 16 11 9 7 5 9 13 13 13 14 16 15 12 10 8 5
18 17 17 17 16 15 14 14 13 12 12 12 12 12 11 10 10 9 9 9 8 7 5 5 5 6 5 4 3 3 4 4 3 3 3 3 3 3 5 7 10 11 11 11 10 10 11 12 6 3 6 12 18 23 27 27 23 23 25 26 26 28 28 23 22 20 19 18 18 18 17 20 20 16 11 6 2 8 14 17 17 17 18 16 13 10 8 5
20 19 19 19 19 18 17 16 15 14 13 13 13 13 12 11 10 10 10 9 9 8 6 5 5 6 7 6 5 4 5 5 4 4 4 3 3 2 3 5 8 10 11 10 9 9 11 10 4 3 7 12 18 23 26 25 22 23 25 26 27 30 29 24 24 24 23 21 20 20 20 20 21 19 15 11 5 3 12 17 18 17 17 15 13 10 8 6
22 21 21 21 21 21 19 18 17 16 15 14 14 14 12 12 11 11 10 10 9 8 7 6 6 6 8 7 6 5 6 6 5 5 4 3 3 2 2 2 5 8 9 9 8 8 11 11 6 3 6 12 19 23 25 22 21 23 24 26 28 30 29 25 26 28 27 25 23 22 21 21 21 19 17 14 11 5 4 10 11 11 12 12 11 10 8 6
23 23 23 22 23 22 22 20 19 18 17 16 15 15 13 12 12 12 11 10 10 9 8 7 6 7 8 9 8 6 7 7 5 5 5 4 3 2 2 2 2 5 8 9 8 7 8 9 6 2 2 9 18 22 23 20 19 21 23 25 28 29 27 24 26 29 29 27 25 23 22 20 20 19 17 16 13 9 4 1 5 7 8 9 10 10 8 6
25 24 24 23 23 24 23 22 21 20 18 17 16 16 15 14 13 13 12 11 11 10 9 8 7 7 8 9 9 8 9 7 5 6 6 5 3 3 3 2 1 2 5 7 7 7 4 5 5 1 6 2 14 20 21 21 20 20 23 26 28 28 26 24 24 27 29 28 27 25 22 20 18 17 17 16 13 10 8 4 1 6 7 8 9 9 7 6
26 26 25 25 24 24 24 24 23 22 20 19 18 17 17 15 14 14 13 12 12 11 10 9 9 8 8 8 9 10 10 8 6 7 7 6 5 4 3 3 2 1 3 6 7 6 3 3 3 4 12 6 10 18 20 24 21 18 22 27 28 26 25 24 24 26 28 28 27 26 23 20 18 16 15 15 13 12 10 9 4 3 8 8 7 8 6 5
27 27 26 26 25 25 25 25 24 23 22 21 19 19 18 17 16 15 15 14 13 12 11 10 10 9 8 9 10 11 11 9 9 8 8 7 6 5 4 3 2 2 2 5 7 7 4 4 5 2 9 3 10 15 19 24 19 14 22 28 29 27 26 25 24 26 28 28 26 25 23 21 19 16 14 14 13 13 12 12 10 6 7 7 6 6 5 5
27 27 27 27 26 26 26 26 25 24 24 23 21 21 20 19 18 17 17 16 15 14 13 12 11 11 10 9 9 10 12 12 11 10 9 8 7 6 5 4 3 2 1 3 7 8 5 6 8 2 3 5 12 13 18 23 17 15 23 28 28 28 27 26 26 26 28 28 26 26 24 21 20 18 16 14 14 13 12 12 12 10 6 5 4 4 4 5
27 27 27 27 27 27 27 27 26 26 25 24 23 22 22 21 20 19 18 17 17 15 14 13 12 12 12 11 10 11 13 13 11 11 11 10 9 7 6 5 4 2 1 2 5 6 4 7 6 0 4 11 12 14 19 21 17 17 21 24 27 28 28 28 27 26 27 28 26 26 24 22 20 19 18 17 15 14 13 12 11 9 6 3 2 3 4 4
26 26 27 27 27 27 27 27 27 26 26 25 24 24 23 23 22 21 20 19 18 17 16 15 14 14 13 13 12 12 15 14 12 13 13 12 11 9 7 6 5 3 2 2 5 6 4 7 5 3 10 13 12 16 19 19 18 18 18 19 25 26 26 28 28 27 26 26 25 25 24 23 23 20 18 18 17 15 14 13 11 8 7 4 2 3 6 6
26 25 26 26 26 27 27 27 26 26 26 25 25 24 24 24 23 22 21 20 20 18 17 16 15 15 14 15 14 13 14 13 13 14 13 12 11 10 9 7 6 4 3 4 7 8 8 9 5 5 11 13 14 16 18 18 17 17 15 15 21 24 25 27 28 28 26 24 23 25 26 23 23 21 19 18 17 16 15 14 12 8 6 5 4 3 5 7
25 25 25 25 25 26 26 26 25 25 25 25 25 24 24 24 24 23 22 21 21 20 18 17 16 16 16 17 16 14 15 15 15 15 13 12 12 11 10 8 7 6 5 6 8 8 9 9 6 8 13 13 13 12 15 18 17 16 13 12 19 22 24 28 28 27 25 23 22 25 27 23 23 22 19 18 17 16 15 15 13 9 7 6 5 4 2 4
25 24 24 24 24 25 25 25 24 24 24 24 24 23 24 24 24 23 23 22 21 21 19 18 17 17 17 18 16 16 18 19 18 16 14 13 13 12 11 10 9 8 7 8 9 8 9 11 8 10 14 13 10 9 15 19 19 18 14 15 20 20 22 27 28 27 24 21 23 25 26 24 25 25 21 19 17 16 15 14 11 9 9 8 6 5 3 3
24 24 24 24 24 24 25 24 23 23 23 23 23 22 22 23 23 23 22 22 22 21 19 19 18 18 19 18 18 19 21 22 20 16 15 15 14 13 13 12 11 10 9 9 9 8 9 13 12 11 13 12 10 10 14 19 20 19 15 16 19 15 17 23 25 25 21 18 22 25 25 25 27 28 25 20 18 16 15 14 11 8 8 9 8 7 5 4
23 23 24 24 24 24 24 23 22 22 22 22 22 21 21 22 22 22 21 21 21 21 20 19 19 19 19 19 21 22 23 24 20 17 17 16 16 15 14 13 12 11 10 11 10 9 10 13 13 13 14 13 12 12 15 20 20 19 16 15 16 15 15 19 22 23 18 15 18 22 23 25 27 28 26 23 19 16 14 13 10 8 6 7 7 7 7 6
22 23 23 24 24 24 23 22 22 21 21 21 20 20 20 20 21 20 20 20 21 20 20 19 19 20 20 20 22 23 23 22 19 18 18 18 18 16 15 15 14 13 12 12 11 11 11 11 14 16 16 15 13 16 18 19 18 17 16 15 16 18 16 16 19 20 16 14 16 20 23 25 27 27 27 24 19 16 15 13 11 7 6 5 5 5 6 7
21 22 22 23 24 23 22 22 22 21 21 20 19 18 18 19 19 19 19 20 20 20 20 19 20 20 21 21 22 21 20 20 19 20 19 19 18 17 17 17 16 15 13 12 12 12 12 10 14 17 16 14 12 17 19 18 19 18 16 16 15 17 16 14 16 17 15 14 18 22 24 25 26 26 26 25 21 16 15 14 12 10 9 7 5 4 4 6
21 21 22 23 23 22 22 22 22 22 20 19 18 17 17 18 17 17 18 20 20 19 19 20 20 21 20 19 20 20 20 20 21 22 21 19 19 19 19 18 17 15 14 13 13 13 13 11 13 16 16 12 9 14 17 17 21 21 18 17 16 16 14 12 15 15 13 15 20 22 23 24 26 26 25 26 23 18 16 14 12 12 11 10 9 7 6 6
20 21 22 22 21 20 21 22 22 22 21 19 18 17 17 16 16 16 17 18 18 18 19 20 20 20 19 17 18 20 21 21 22 22 21 19 20 21 21 20 18 16 15 14 14 14 14 13 13 13 12 8 4 7 13 15 19 20 19 20 18 15 12 10 11 10 11 15 18 19 21 23 25 24 23 27 25 19 17 15 13 12 12 12 13 12 12 12
20 20 21 21 20 19 20 21 21 21 20 19 18 17 16 15 15 15 15 16 17 18 19 19 19 19 18 17 18 19 19 20 21 21 19 19 21 22 22 20 18 16 16 16 14 12 14 15 12 10 6 1 4 4 10 13 14 14 15 18 16 13 10 7 7 6 9 14 14 17 20 22 25 22 21 26 23 18 18 14 13 13 13 15 16 17 17 18
18 19 20 20 18 18 18 19 20 20 20 19 18 17 16 15 15 15 14 15 16 17 18 18 18 18 17 18 20 19 19 19 19 19 18 19 21 23 22 21 18 18 18 17 13 11 13 14 12 11 7 1 5 6 10 13 13 10 10 10 8 7 7 4 5 3 7 12 12 15 19 20 23 22 21 23 20 18 18 13 13 14 14 16 17 17 17 18
15 17 19 19 18 17 17 17 18 18 18 18 17 17 16 15 15 14 14 14 15 16 18 18 18 17 18 20 21 19 18 17 16 17 17 18 22 24 23 21 20 19 18 16 12 11 14 16 15 15 12 8 7 4 10 15 15 10 8 7 2 1 2 3 3 3 7 10 12 14 17 19 20 22 21 20 19 20 19 16 16 15 15 16 17 17 16 18
12 15 17 18 17 16 16 16 16 17 17 17 16 16 16 15 15 14 14 14 14 15 16 17 17 17 18 20 19 17 16 15 15 15 16 19 23 24 23 22 21 20 18 15 13 14 16 17 17 16 15 14 9 3 9 17 16 9 6 6 3 2 2 4 4 1 5 5 9 10 14 17 20 20 18 18 21 22 21 22 21 16 15 17 17 18 17 18
10 12 15 15 15 15 14 15 15 15 15 15 16 16 16 16 15 15 14 14 14 14 15 15 16 17 18 19 18 16 15 15 15 15 17 19 21 23 23 22 20 19 18 15 14 16 17 17 15 14 14 14 10 6 9 16 15 7 4 4 3 3 3 8 10 5 6 6 4 6 10 18 21 17 14 17 22 24 23 24 23 18 17 19 19 18 18 19
9 11 13 12 12 12 12 12 13 13 14 14 15 15 15 15 15 14 14 13 13 14 14 14 16 17 17 17 17 17 16 16 16 16 17 17 21 24 23 22 21 20 19 16 15 16 16 16 16 15 14 11 8 8 13 17 14 8 6 6 8 4 4 9 12 10 6 5 6 7 9 16 19 15 13 16 22 25 23 24 26 21 18 20 20 19 19 20
9 11 11 10 9 9 9 10 10 11 12 12 13 13 13 13 13 13 13 12 12 12 13 14 14 16 17 16 16 17 16 15 15 16 16 16 21 24 23 22 22 21 20 18 16 15 15 17 19 18 13 8 4 10 18 19 14 9 8 9 6 3 2 6 11 14 9 1 6 10 10 14 17 15 14 17 22 25 23 24 27 23 20 20 21 21 20 20
8 10 10 8 7 7 7 8 9 9 9 9 10 11 11 11 11 11 10 10 9 10 12 13 14 15 16 16 16 16 15 14 16 17 16 18 22 24 23 23 23 22 20 18 17 17 17 18 18 16 12 8 3 10 19 18 13 12 8 4 4 9 5 2 8 12 9 5 4 6 9 12 15 16 17 18 22 24 24 26 25 21 20 20 21 22 21 20
8 9 9 7 6 4 4 5 6 6 6 7 8 9 9 9 10 10 10 10 9 9 11 13 14 14 15 16 16 16 15 14 16 16 17 19 22 24 24 23 22 22 20 19 17 17 18 18 16 15 13 9 3 9 18 17 12 11 6 3 6 8 5 2 6 11 11 10 8 4 8 11 12 16 17 18 21 24 25 24 22 19 19 20 21 22 21 20
8 8 8 6 4 3 2 2 3 4 6 7 8 8 8 8 8 8 10 11 9 8 11 13 14 14 14 15 15 16 15 13 12 14 18 22 24 25 26 24 22 20 18 17 16 16 16 16 15 15 13 8 3 5 13 17 14 11 5 3 7 9 7 5 9 13 11 10 7 1 7 8 10 15 16 16 19 22 22 20 18 17 18 19 20 21 21 19
7 7 7 5 3 2 0 2 4 6 7 8 9 9 10 11 10 9 11 11 8 8 10 13 14 14 14 14 15 16 14 11 10 12 17 23 25 27 27 24 21 17 13 12 14 15 14 13 12 10 8 5 2 2 7 13 13 7 2 4 8 10 8 7 11 12 12 10 3 6 7 5 9 13 14 14 16 19 20 17 15 16 17 17 19 20 20 18
6 6 5 4 2 0 2 4 5 7 7 9 11 13 14 14 13 13 13 10 7 8 10 12 14 13 13 14 15 15 13 10 11 12 16 22 25 26 25 22 19 16 12 11 13 14 12 10 8 6 5 6 4 3 5 7 8 4 1 7 12 13 10 8 10 9 9 7 4 7 7 7 9 10 10 13 14 16 19 17 15 16 16 15 18 19 19 16
6 5 4 3 1 1 3 5 6 7 10 13 16 18 18 16 15 16 16 11 7 6 9 11 13 12 12 12 11 12 11 9 11 13 16 21 23 23 23 21 19 16 14 12 10 9 9 7 5 2 3 7 7 5 6 7 7 7 6 10 13 11 8 7 9 9 7 4 5 7 7 9 10 8 10 14 12 13 17 17 16 16 15 15 17 19 18 15
5 5 4 3 1 2 3 5 7 9 13 18 21 22 20 18 16 16 17 15 11 7 8 11 12 10 11 12 12 13 11 10 12 12 14 18 21 21 21 20 17 16 15 13 10 7 7 5 4 4 3 2 5 6 8 9 8 9 7 7 10 9 8 5 4 6 7 2 5 7 7 9 10 9 11 13 13 14 16 16 16 15 15 15 17 19 18 15
6 4 3 3 2 3 4 6 9 13 18 22 24 23 21 20 17 16 19 20 17 12 9 10 10 8 9 11 13 13 9 9 12 12 12 15 18 20 21 18 17 16 14 12 12 13 14 12 9 8 9 5 2 5 8 10 8 7 6 8 11 9 8 6 2 5 6 2 4 9 10 10 11 10 12 12 14 17 16 15 15 14 15 16 17 19 18 15
6 4 3 3 4 4 6 8 11 17 22 24 25 23 21 20 17 17 20 23 22 17 12 9 9 8 9 9 12 13 10 9 11 12 13 13 14 18 18 16 17 16 13 11 12 13 13 11 9 7 7 5 3 7 8 10 10 9 9 10 11 8 5 4 5 7 3 2 6 8 9 12 13 10 11 13 15 17 16 14 13 12 14 16 17 17 16 13
6 4 3 4 5 5 8 10 14 20 24 25 25 23 22 20 17 17 21 23 22 19 15 12 12 11 11 11 10 12 11 11 12 12 12 14 11 12 13 15 17 15 15 13 11 9 8 6 6 5 3 1 1 4 7 12 13 12 12 11 9 7 5 3 6 7 2 4 6 6 9 14 14 12 14 14 11 14 17 16 13 13 13 14 15 16 15 13
6 4 3 4 5 7 9 11 16 22 24 24 24 24 22 20 16 17 22 23 21 21 19 17 16 14 14 14 11 11 11 11 13 12 11 14 12 9 9 13 16 15 17 15 11 10 8 4 3 3 5 9 11 8 3 14 15 14 16 14 9 8 6 5 6 7 5 4 6 7 10 14 14 12 14 12 8 12 19 18 15 14 11 11 13 14 14 12
7 5 5 6 6 8 10 13 17 21 23 24 24 24 21 16 13 16 22 24 23 22 21 20 18 15 13 13 12 10 10 7 9 11 11 13 12 11 11 14 16 18 19 17 14 14 11 6 3 3 8 12 14 14 5 10 17 17 16 13 11 12 11 9 8 8 7 3 6 8 11 13 13 11 12 11 10 14 18 19 16 13 10 10 10 11 12 12
8 7 6 7 8 9 12 15 18 20 22 23 22 24 21 14 12 17 22 24 24 23 22 21 18 12 9 9 11 9 10 7 6 9 8 10 10 9 9 9 14 19 21 19 17 17 14 11 8 3 2 5 5 9 10 4 16 19 16 13 12 12 10 8 6 7 7 4 6 8 11 13 12 11 9 10 13 16 18 20 15 11 10 10 8 9 10 9
10 8 8 8 9 11 13 16 19 20 21 21 20 23 22 14 14 19 22 24 25 25 24 22 17 13 12 10 11 9 9 4 7 9 7 8 8 5 2 2 6 14 20 20 17 19 18 15 13 10 7 4 3 4 10 7 12 20 18 14 12 9 7 6 6 5 4 5 9 8 10 13 14 14 12 12 15 18 20 18 13 10 11 11 11 11 9 7
11 10 9 9 10 12 14 17 20 20 20 20 19 20 19 14 14 20 23 25 26 27 27 22 19 19 16 12 11 10 2 2 5 8 6 6 6 4 3 4 3 7 16 22 21 21 21 18 15 14 11 7 5 5 9 8 9 21 20 17 13 9 6 5 6 6 4 5 11 11 11 14 14 12 12 13 16 20 20 16 11 11 11 11 12 11 10 8
12 11 11 11 11 13 15 18 21 21 20 19 17 18 17 14 14 18 22 25 27 29 28 23 22 22 18 13 14 14 7 3 7 7 4 4 5 6 6 7 5 5 13 23 25 24 22 18 16 13 9 5 4 4 7 8 5 12 16 18 18 14 9 6 6 9 6 5 10 11 12 14 12 9 11 13 15 17 17 14 11 10 8 8 9 9 9 9
13 12 12 13 12 13 15 18 21 21 19 17 16 17 17 17 18 19 21 25 28 30 29 25 24 25 21 18 18 18 14 10 11 11 9 8 7 6 6 8 7 6 12 22 27 27 23 18 15 11 9 5 4 7 8 7 5 6 12 16 17 15 12 10 9 11 10 8 11 11 12 13 11 9 11 13 14 15 13 10 9 10 8 7 7 5 6 8
13 12 12 12 12 12 13 16 20 21 20 19 18 18 18 18 20 21 21 25 27 28 29 28 28 26 24 24 22 21 20 17 15 14 12 11 10 8 7 9 9 8 11 21 27 28 25 20 16 13 13 12 13 12 11 8 7 8 10 14 14 10 9 10 10 12 12 11 12 10 12 14 12 10 12 14 16 15 11 8 8 12 13 12 10 5 4 6
13 11 11 12 12 12 13 15 19 20 21 21 19 20 19 18 20 21 23 26 26 26 29 30 30 29 27 27 26 24 22 21 20 19 14 10 10 10 10 11 11 9 10 16 22 25 25 22 18 17 17 17 17 16 13 10 10 11 8 11 13 8 6 10 13 12 10 10 9 7 10 12 13 13 13 12 11 10 10 9 10 12 17 17 13 9 8 10
14 12 12 13 13 13 13 15 17 18 20 20 19 20 20 18 19 21 25 28 27 26 30 31 30 30 30 29 28 26 25 24 22 22 18 13 11 13 14 14 14 12 10 12 15 18 21 18 15 19 23 22 20 17 13 9 7 10 10 9 12 11 5 6 11 12 11 11 10 9 9 10 10 12 10 8 7 7 9 11 10 12 19 20 14 9 10 12
16 15 15 15 14 14 15 14 14 15 17 18 18 19 20 20 20 22 26 29 26 26 31 32 31 31 32 30 29 29 30 26 21 21 23 20 18 19 20 18 15 13 13 13 12 13 15 14 13 20 25 24 22 19 15 11 10 12 11 6 5 9 8 6 9 12 13 13 12 12 13 13 13 12 9 7 6 7 10 12 13 14 18 19 13 9 13 17
17 18 19 18 17 17 17 16 15 14 14 15 16 18 20 21 22 24 26 28 27 28 31 32 32 33 33 31 30 32 33 29 24 22 24 22 19 19 21 20 15 13 14 13 12 12 14 13 12 16 22 24 25 22 17 16 17 14 10 5 5 8 11 13 12 13 16 15 9 7 10 13 16 14 9 8 8 9 11 13 13 13 16 18 14 12 18 23
20 21 21 20 19 19 19 19 18 16 14 14 15 16 18 21 24 25 26 26 29 32 33 32 32 34 33 31 30 32 34 31 28 25 24 22 18 15 15 14 11 13 13 11 12 13 15 15 13 15 19 21 23 23 19 20 21 15 10 10 9 9 13 17 12 13 19 17 9 5 4 8 14 16 13 12 11 12 13 14 13 15 18 19 17 19 24 29
24 24 22 20 19 20 20 20 19 19 18 16 15 15 18 22 25 27 27 27 30 32 33 33 34 34 34 32 29 31 33 30 29 27 25 23 19 14 11 9 6 7 9 10 12 13 14 16 14 13 16 18 19 22 23 22 19 14 11 13 13 11 15 18 12 9 13 16 13 8 6 6 9 11 12 13 13 13 14 14 15 17 18 18 19 22 27 30
26 26 23 21 20 20 21 21 21 21 21 19 18 18 20 24 26 27 28 29 30 32 32 33 35 35 35 33 30 30 31 29 27 26 26 24 21 16 12 9 5 4 5 7 12 14 14 15 12 9 12 15 15 17 20 19 14 10 11 14 16 16 17 19 15 8 9 14 14 10 8 9 9 8 9 11 11 12 13 13 15 17 18 19 22 24 27 30
Wind_Direction
275 278 280 281 282 282 282 282 284 289 293 297 301 305 309 312 314 315 313 313 313 310 301 274 252 255 261 269 285 277 270 278 294 314 324 352 17 41 63 82 96 103 105 107 104 98 91 84 74 81 116 102 86 74 69 63 55 52 52 47 47 50 46 45 49 48 49 50 54 55 51 53 60 86 124 154 196 214 207 213 215 214 212 201 197 192 183 170
273 276 278 279 280 280 280 280 280 282 285 289 293 297 301 304 306 307 306 306 306 304 299 277 249 243 246 246 254 261 262 266 277 289 302 330 358 28 55 79 94 104 107 104 109 113 97 87 90 107 97 90 83 76 70 64 56 50 50 48 47 51 45 43 51 51 51 52 55 54 50 53 57 66 80 96 171 219 218 219 214 213 209 198 195 189 179 167
270 273 275 277 278 279 279 278 279 279 281 283 285 289 293 296 297 298 299 300 299 298 293 276 253 236 236 238 237 248 259 259 261 271 289 312 329 359 35 71 90 103 108 105 115 125 113 114 143 122 92 86 82 76 68 61 56 52 51 50 50 52 46 43 52 53 51 52 52 51 48 51 53 55 59 63 67 257 237 223 211 206 201 191 188 177 170 162
268 271 273 275 276 277 277 277 277 277 278 278 280 282 284 287 288 289 291 292 292 291 287 273 255 237 230 234 232 236 251 253 251 257 272 286 306 328 354 46 85 103 113 116 121 125 121 125 129 90 82 85 82 74 64 59 58 55 53 52 53 54 47 43 51 52 50 49 49 49 48 49 49 50 51 58 64 45 258 221 205 193 185 179 175 165 161 151
268 270 272 273 275 275 276 277 276 276 276 275 275 277 278 278 279 281 283 284 284 283 280 270 255 239 228 228 229 231 241 247 243 244 250 253 280 300 306 336 71 97 111 119 121 120 123 127 124 99 63 87 84 73 65 65 62 59 56 54 53 53 47 42 48 52 51 49 47 47 47 48 50 50 51 54 61 60 52 192 202 186 174 174 172 165 160 149
269 270 271 272 273 274 275 275 276 275 275 273 272 273 273 272 271 273 275 276 276 274 272 265 253 239 229 224 224 227 233 238 236 236 241 239 246 260 278 292 338 72 102 113 119 121 134 135 121 266 279 65 85 75 72 74 63 58 59 56 53 50 47 43 48 53 53 51 48 45 44 47 50 50 53 55 57 58 50 37 232 202 181 171 172 167 161 156
269 270 270 271 271 271 272 273 274 274 273 272 270 269 270 269 267 267 268 269 268 267 264 258 250 238 228 221 218 224 230 231 232 236 241 239 238 243 261 275 295 352 87 103 112 112 118 115 102 261 269 268 96 83 81 79 65 58 62 59 55 50 47 45 48 54 53 50 49 47 44 46 50 51 56 57 54 54 50 41 34 190 179 163 163 164 159 168
269 269 270 270 269 269 270 271 271 271 271 270 267 266 266 265 264 263 263 263 262 261 258 251 245 236 226 218 214 221 226 226 225 231 235 232 235 236 250 268 280 309 70 99 109 105 105 92 82 245 266 258 104 93 86 80 71 69 68 63 58 50 47 45 45 50 50 47 47 48 46 45 49 52 56 58 55 51 49 46 47 87 149 153 156 164 165 185
266 267 268 268 268 268 268 269 269 268 268 267 265 263 262 261 260 259 259 259 258 256 253 246 239 231 224 216 211 214 222 222 219 225 229 226 229 230 241 257 262 274 89 108 112 112 129 94 67 4 306 72 95 97 90 83 79 78 69 63 57 49 45 44 42 43 44 43 44 45 44 44 47 49 49 53 56 52 48 45 45 62 103 142 158 172 182 202
264 265 266 266 266 266 266 267 267 267 266 265 264 261 260 259 257 256 256 256 255 252 250 244 235 229 224 214 207 209 218 219 215 220 223 222 224 224 232 239 245 245 153 140 119 119 131 96 87 170 73 80 95 97 87 82 86 82 69 60 54 50 46 43 40 36 37 38 41 42 42 43 44 44 44 42 44 45 46 46 41 43 55 91 173 208 219 229
264 264 264 265 265 265 265 265 265 265 264 263 262 260 258 256 255 254 253 253 252 250 248 243 235 227 223 214 205 208 217 215 210 213 214 217 221 221 221 225 238 218 173 166 115 109 89 95 124 130 83 88 95 89 82 81 87 84 76 63 52 51 48 42 38 33 31 34 40 40 37 40 40 38 40 40 39 38 40 41 38 37 36 33 356 264 248 247
264 263 263 263 263 264 263 263 263 263 263 262 260 259 257 255 254 252 250 250 250 249 246 242 236 227 223 216 205 208 222 219 216 217 213 215 220 219 215 212 226 212 173 151 126 117 98 102 130 93 83 94 88 85 84 83 90 90 87 70 50 49 49 42 35 29 27 31 41 40 31 32 39 38 38 42 42 38 35 30 26 28 29 24 14 335 271 254
264 263 263 263 262 262 262 262 261 261 261 260 259 257 255 253 252 250 248 248 247 247 244 241 236 228 223 218 205 206 222 225 221 219 214 215 218 218 212 205 216 211 176 163 159 149 120 117 138 98 92 95 80 82 87 83 95 96 89 72 49 45 46 40 33 26 24 30 41 40 31 29 36 38 38 44 44 40 37 31 23 20 22 20 8 1 321 273
264 264 263 263 262 262 262 261 260 260 260 259 258 256 254 252 251 248 246 245 244 244 242 239 235 229 225 218 206 205 218 224 220 216 214 215 217 217 211 204 210 211 187 177 186 182 142 133 139 114 113 108 79 85 95 90 93 88 77 67 56 47 41 38 34 27 23 32 42 40 35 31 31 31 34 42 43 42 42 37 30 25 22 19 4 349 335 315
264 264 264 263 262 262 261 262 261 261 260 259 258 256 255 253 250 248 245 243 242 241 239 237 233 230 226 218 208 208 217 224 222 217 218 218 216 215 213 206 206 211 196 188 195 192 156 142 141 133 127 115 95 107 104 90 87 84 79 69 62 52 38 37 34 26 22 33 40 36 32 28 27 27 28 33 36 38 42 39 41 49 34 22 11 354 330 315
265 264 263 262 261 260 260 261 261 261 260 259 258 257 256 254 251 249 245 242 241 239 237 235 232 230 227 220 213 211 216 223 222 218 219 221 219 214 213 208 205 211 202 196 196 185 174 156 142 135 124 108 109 126 107 87 88 90 86 76 69 62 48 43 34 19 16 31 34 28 25 21 21 21 21 24 26 29 35 37 47 65 55 30 17 4 346 324
266 265 264 262 260 259 259 259 260 260 260 259 259 258 257 255 253 249 245 242 239 237 234 232 231 230 228 223 218 217 220 225 224 221 220 221 221 214 212 209 205 210 205 201 198 185 189 170 138 133 126 114 116 120 107 96 100 100 89 78 68 59 52 49 36 15 10 25 26 23 20 16 14 13 13 16 19 22 25 28 34 41 38 34 25 6 352 333
266 266 264 262 260 259 257 256 257 257 258 259 259 259 258 256 253 249 244 240 236 234 232 230 229 229 228 224 222 221 224 228 227 225 223 220 220 213 210 210 206 208 207 204 200 190 193 177 147 139 132 130 125 111 103 100 106 109 99 84 67 54 48 52 46 18 8 20 20 19 16 11 10 6 5 9 12 17 19 19 21 18 16 17 13 357 343 330
266 266 265 263 261 260 258 255 254 255 257 258 259 258 257 255 253 248 242 238 235 232 230 229 227 227 227 223 224 223 220 222 222 223 222 217 217 214 210 210 207 205 206 205 201 194 192 181 162 152 145 148 139 109 101 100 107 112 102 86 74 61 47 48 50 21 3 11 14 17 14 9 6 359 360 4 6 12 14 14 15 10 8 3 355 342 321 314
265 265 265 263 262 260 257 254 252 253 254 256 256 255 254 253 251 247 243 238 234 230 228 227 226 226 225 222 222 223 219 217 220 222 220 214 211 212 210 208 205 204 206 206 201 196 189 182 174 165 153 148 162 125 107 103 112 115 105 95 89 80 60 47 46 15 358 6 7 14 12 6 359 353 359 3 3 9 7 8 14 10 8 2 353 343 330 324
266 265 264 263 261 259 256 253 251 251 253 254 253 251 250 249 248 245 242 236 231 228 227 225 224 222 220 218 217 218 219 218 220 222 221 214 208 208 209 207 204 202 206 207 200 195 189 185 174 154 128 66 269 179 119 103 106 114 114 106 99 102 104 74 47 4 354 3 6 13 9 1 353 349 357 1 3 8 1 2 14 14 13 8 359 350 341 334
269 267 264 262 260 259 257 253 251 250 252 253 250 248 248 245 244 242 237 233 229 226 226 223 222 219 213 214 214 211 215 218 219 219 218 213 205 206 207 204 202 202 206 205 191 184 189 184 161 133 116 202 238 181 125 106 100 113 135 118 93 111 120 51 17 342 335 353 12 16 3 351 347 347 352 357 1 6 4 7 14 17 18 12 4 355 344 336
276 269 264 261 260 260 258 254 250 249 251 250 245 244 244 242 242 240 234 230 227 225 224 221 219 214 208 210 212 209 211 215 216 214 213 208 203 204 204 201 202 203 205 201 181 174 184 180 164 147 139 154 191 161 119 121 120 129 150 131 98 124 79 11 351 328 328 359 24 16 358 349 342 343 352 3 9 7 10 11 7 15 20 10 1 355 348 344
285 275 266 261 260 260 258 254 250 248 249 246 241 239 237 237 237 236 232 228 226 224 223 221 216 209 206 208 209 206 204 206 208 209 210 207 203 203 201 200 203 203 201 195 181 177 187 195 191 174 156 155 173 157 124 136 134 133 148 144 182 209 107 149 167 266 295 342 25 12 353 342 332 335 355 19 23 13 10 8 4 11 15 5 356 354 355 353
298 284 272 265 261 260 257 252 248 246 246 242 239 236 235 235 232 229 228 225 224 222 219 217 211 205 204 207 205 200 199 199 200 205 210 208 203 201 200 200 202 202 198 190 187 187 192 206 209 190 173 169 176 166 145 148 141 136 152 158 232 229 157 176 172 176 244 258 327 6 353 337 331 338 2 23 22 11 7 7 7 10 8 1 353 352 356 355
306 293 283 275 266 260 254 250 247 244 243 238 235 234 233 234 230 224 222 221 220 217 213 212 207 203 203 204 201 198 199 199 199 206 208 205 202 199 197 198 200 201 197 188 191 197 196 201 206 205 199 187 171 146 143 151 152 157 165 201 253 257 192 190 175 184 235 279 320 356 354 331 332 346 2 13 13 7 2 3 5 4 2 359 353 350 352 354
306 297 294 289 275 263 253 248 244 241 239 234 231 230 229 228 225 220 216 215 215 210 208 206 203 202 202 201 199 198 200 201 206 211 205 199 201 198 194 196 199 201 200 192 191 195 196 199 207 218 223 215 174 138 147 154 160 174 184 204 230 55 97 188 170 191 215 298 344 345 337 319 330 342 351 3 9 6 358 354 357 358 358 357 354 351 351 353
300 297 301 301 285 267 252 244 239 237 235 228 225 222 219 216 211 207 203 202 202 201 201 199 198 199 199 199 197 198 199 199 207 211 201 195 196 194 193 197 201 201 198 195 196 195 194 200 211 220 227 240 235 149 162 166 167 188 201 182 105 62 57 160 144 168 170 100 18 329 317 319 334 336 342 358 4 1 351 346 352 358 358 356 354 354 355 355
294 295 305 308 296 279 258 243 233 228 220 213 210 202 201 198 189 187 183 180 182 187 191 191 193 195 196 197 195 194 195 199 211 210 196 190 190 189 192 198 205 205 198 194 199 203 202 207 215 218 222 230 206 166 177 179 185 216 234 102 97 77 74 112 110 128 122 81 57 17 316 321 324 323 340 357 357 352 343 343 355 1 0 358 353 354 356 359
290 292 305 313 305 296 272 222 194 192 188 184 179 175 174 163 159 169 169 165 168 176 182 184 187 191 192 192 192 192 192 198 215 213 196 187 184 187 192 196 202 205 202 199 204 211 214 218 221 224 234 239 205 183 192 193 209 240 257 142 117 103 121 135 103 97 84 61 59 335 292 313 322 321 334 344 348 350 344 348 2 1 1 1 356 356 358 1
286 288 303 314 311 309 178 155 156 165 167 162 158 152 142 136 141 151 153 152 155 163 176 180 182 187 186 187 190 189 190 196 204 205 198 187 181 186 192 194 198 199 196 198 206 214 220 227 231 235 252 260 228 220 211 209 224 252 264 176 139 119 138 134 105 88 60 44 14 286 286 306 320 321 328 337 351 1 357 359 5 0 3 5 2 4 4 4
284 284 296 311 310 319 138 155 159 160 155 151 148 139 131 133 135 135 138 137 136 154 171 176 178 184 185 186 188 183 187 196 187 185 192 188 184 187 191 192 194 194 192 194 202 213 220 226 233 243 255 246 224 226 229 224 236 255 140 152 141 128 135 135 122 107 67 49 339 316 327 317 309 317 336 350 5 11 8 9 7 4 9 11 10 11 8 7
282 279 287 296 279 162 150 164 164 158 153 150 145 138 134 134 130 131 136 122 98 134 161 165 171 178 179 178 176 174 182 188 180 178 182 186 186 186 190 193 191 191 195 198 205 216 220 221 228 241 270 261 253 251 245 233 226 219 181 152 153 146 142 154 148 129 96 41 309 302 316 315 309 315 342 357 10 11 8 12 12 10 11 13 17 16 12 11
281 275 276 277 225 171 163 168 162 156 155 149 142 138 136 134 128 132 134 112 85 106 143 150 158 167 171 165 159 165 177 175 171 170 172 183 188 187 191 194 191 195 199 196 189 179 168 161 161 147 128 254 270 264 251 244 233 223 211 180 181 170 133 132 155 132 113 61 290 276 288 301 301 322 356 8 17 11 5 8 13 16 13 13 19 19 14 14
280 270 265 255 207 172 165 167 161 157 157 150 145 144 139 133 132 139 137 118 98 93 108 128 140 153 161 160 160 161 162 168 167 158 161 179 188 190 194 192 191 198 202 202 192 169 157 156 164 177 171 163 246 263 250 248 239 217 211 209 204 181 126 108 158 150 122 99 255 259 276 294 308 344 16 17 10 5 0 359 7 16 16 14 19 18 16 15
273 263 252 233 204 173 162 166 162 159 159 156 154 154 147 143 148 153 139 119 104 91 83 99 121 131 139 148 165 161 146 157 160 147 150 162 182 198 196 188 195 197 183 195 209 188 172 171 168 179 181 171 242 262 250 239 223 192 181 197 200 180 128 110 151 148 118 312 265 263 287 305 315 338 3 360 0 5 360 351 355 8 14 16 19 17 15 17
264 253 235 220 202 175 163 165 164 163 165 165 164 162 157 155 159 155 139 124 118 108 91 96 115 128 134 132 148 153 144 150 146 137 148 147 159 195 191 183 197 191 167 177 203 189 164 162 167 173 185 162 309 266 240 227 215 189 174 176 175 165 154 153 161 149 148 275 277 307 320 314 313 331 353 357 9 18 9 358 352 357 9 18 19 16 15 18
253 242 220 209 200 177 165 166 168 170 174 175 172 168 163 161 165 162 149 137 132 124 112 112 117 121 124 108 102 119 120 132 137 131 142 140 132 148 169 186 190 172 167 177 173 149 132 120 164 144 88 69 57 47 216 210 199 185 179 172 158 163 158 139 154 161 174 249 288 306 311 311 317 340 2 10 13 4 1 357 348 348 3 21 22 19 20 20
242 234 210 198 194 178 168 168 172 177 182 182 178 172 167 169 181 176 159 148 143 134 123 117 112 115 121 95 80 91 77 81 133 135 138 139 131 137 159 186 182 165 170 179 159 140 134 126 140 77 68 70 56 38 36 189 182 177 181 174 156 157 147 121 127 150 166 239 292 284 292 314 329 341 3 15 356 342 351 354 345 337 349 11 21 21 23 25
232 227 209 195 188 178 171 171 176 184 187 186 183 177 173 180 197 188 170 154 143 132 119 112 109 120 138 108 87 76 36 30 134 139 138 138 127 131 151 174 176 169 174 179 166 154 153 152 156 159 72 74 56 37 41 125 179 177 180 178 162 156 151 130 126 146 167 224 267 277 296 316 325 331 351 5 348 339 348 351 340 329 339 349 357 7 15 25
227 221 211 200 190 180 176 175 181 189 191 190 189 183 179 184 195 189 172 151 139 130 123 124 131 142 149 134 112 85 27 3 146 129 117 118 109 115 161 200 178 176 179 181 174 170 175 176 163 165 181 165 130 73 55 68 182 181 177 175 165 163 171 153 149 156 170 218 232 257 297 311 316 325 337 347 344 341 344 348 337 324 335 339 337 348 359 11
225 215 208 203 195 185 179 178 184 191 194 192 190 185 180 182 193 188 171 154 145 137 135 145 156 151 146 146 141 128 73 306 148 125 113 121 128 157 225 257 220 191 191 187 181 181 191 193 176 169 173 150 114 87 59 58 184 186 180 177 175 187 212 195 183 187 175 217 238 258 290 303 311 325 335 338 337 335 336 340 332 321 330 340 341 354 4 1
224 214 207 203 199 191 184 183 188 195 197 192 187 184 177 174 189 191 175 164 154 145 149 164 162 147 141 147 155 157 161 149 144 153 177 186 182 195 228 243 228 209 202 193 187 189 197 202 192 175 156 119 85 94 87 79 147 192 193 190 189 195 196 173 195 216 206 225 260 281 298 299 303 324 334 330 330 332 334 336 332 326 332 344 351 7 8 356
224 217 211 207 203 198 193 190 192 197 202 198 191 189 181 175 188 195 182 173 162 153 161 169 157 146 148 154 160 165 164 161 171 187 204 215 224 235 249 255 249 228 200 192 192 196 198 206 204 172 137 136 157 150 140 122 126 187 201 199 200 206 200 174 184 211 212 229 258 283 306 304 305 319 317 311 314 320 328 340 341 334 333 334 342 3 11 1
225 220 214 213 210 206 201 197 196 196 200 202 197 192 186 181 189 194 187 181 173 165 168 168 159 156 157 159 166 168 163 170 188 196 199 212 229 246 259 264 260 239 202 192 197 201 202 209 209 176 148 160 170 161 158 150 125 138 186 208 215 225 225 208 197 196 205 231 248 266 292 294 296 303 298 299 305 304 304 311 316 322 329 325 315 304 307 326
222 219 215 215 214 211 207 204 203 200 198 200 199 196 192 186 188 191 188 187 184 178 175 173 167 164 161 166 173 172 168 176 191 196 190 195 217 233 248 254 247 234 205 195 202 207 208 213 211 185 169 174 177 168 163 153 119 118 157 200 206 213 243 235 222 210 214 234 238 246 272 274 278 289 292 301 310 299 289 292 298 323 340 335 316 296 296 305
217 215 214 214 211 211 213 214 214 210 204 202 200 199 198 194 192 190 189 191 190 185 181 179 177 172 170 175 177 172 174 180 191 197 188 181 205 223 234 243 241 233 213 199 206 213 212 216 211 193 186 184 182 176 172 165 146 156 169 172 183 200 230 233 223 225 236 246 245 248 258 259 268 284 295 314 331 314 300 303 310 329 342 338 325 315 322 325
215 214 215 215 210 208 213 220 223 222 219 214 206 200 198 199 199 195 193 193 190 189 187 184 184 183 181 183 179 174 180 182 185 197 196 194 209 221 228 238 238 229 215 200 202 213 213 210 203 197 196 190 185 185 179 172 180 187 178 153 187 222 228 212 217 229 233 235 239 249 260 266 270 279 288 295 307 310 306 313 320 325 329 329 328 339 344 337
212 215 216 215 213 211 210 215 220 223 228 226 216 203 196 199 204 203 201 197 189 190 191 187 189 193 191 190 185 179 183 182 179 193 201 203 213 220 224 233 233 219 210 197 196 210 212 204 194 199 203 196 189 187 180 178 193 195 176 179 256 251 217 206 219 228 217 208 213 245 263 266 264 263 262 262 279 298 301 305 311 310 312 316 319 327 329 323
211 215 216 215 215 216 214 214 215 214 219 224 220 208 197 200 208 209 208 203 194 193 194 191 195 201 199 198 192 187 188 187 184 191 200 207 217 217 213 222 226 219 214 200 195 206 210 208 198 194 205 207 198 192 188 188 197 201 195 209 238 245 220 214 223 228 214 205 210 241 253 255 257 255 250 252 272 291 292 289 292 295 303 311 310 305 304 304
213 215 218 217 217 220 220 220 217 212 211 213 211 207 204 205 209 209 209 210 206 202 198 194 198 203 204 204 200 195 196 195 192 194 201 210 219 221 214 215 224 231 228 213 206 209 213 218 215 197 199 208 205 203 204 199 200 210 213 211 221 234 226 219 223 232 222 214 216 222 222 238 253 251 243 245 262 277 279 280 286 292 296 298 295 293 294 296
216 216 218 220 220 222 223 223 221 217 214 213 206 202 207 211 210 206 206 210 213 211 205 199 198 201 205 210 211 208 205 204 204 204 207 213 221 230 232 225 222 265 267 232 217 218 221 227 231 217 202 204 211 215 205 189 188 212 219 215 224 231 221 213 218 242 242 227 222 214 216 240 261 267 253 249 258 266 271 278 281 283 286 287 291 297 298 297
Height
5926 5927 5927 5927 5927 5927 5927 5928 5928 5928 5928 5927 5927 5927 5927 5928 5927 5927 5927 5926 5926 5926 5926 5927 5927 5927 5927 5927 5927 5927 5926 5926 5925 5925 5925 5925 5925 5925 5925 5925 5925 5925 5925 5925 5924 5924 5924 5923 5924 5925 5924 5922 5919 5918 5917 5916 5917 5918 5916 5916 5915 5913 5913 5913 5912 5911 5910 5909 5908 5907 5907 5905 5904 5904 5906 5907 5907 5907 5908 5909 5910 5911 5912 5914 5916 5917 5919 5920
5924 5925 5925 5925 5925 5925 5926 5926 5926 5926 5926 5926 5926 5926 5926 5926 5926 5926 5926 5925 5925 5925 5926 5926 5926 5926 5926 5926 5927 5926 5926 5925 5925 5925 5925 5925 5925 5925 5925 5925 5925 5925 5925 5926 5925 5924 5924 5923 5925 5926 5924 5922 5920 5918 5917 5918 5920 5920 5918 5918 5917 5915 5914 5915 5914 5913 5912 5910 5909 5908 5908 5906 5905 5906 5906 5907 5907 5908 5908 5908 5909 5910 5911 5913 5915 5917 5919 5920
5922 5922 5923 5923 5923 5923 5924 5924 5924 5925 5925 5925 5924 5925 5925 5925 5925 5925 5925 5924 5924 5924 5925 5925 5925 5925 5925 5926 5926 5926 5925 5925 5925 5925 5925 5925 5925 5925 5925 5925 5925 5925 5926 5926 5926 5925 5924 5924 5926 5926 5924 5922 5920 5919 5919 5921 5923 5922 5921 5920 5918 5916 5916 5917 5915 5914 5913 5911 5910 5909 5908 5907 5907 5907 5907 5907 5907 5908 5907 5908 5909 5909 5911 5913 5915 5917 5918 5919
5920 5920 5921 5921 5921 5921 5921 5922 5922 5923 5923 5923 5923 5923 5923 5923 5923 5923 5923 5923 5923 5923 5923 5924 5924 5924 5925 5925 5925 5925 5925 5925 5925 5925 5925 5925 5925 5925 5925 5925 5925 5926 5926 5926 5927 5926 5925 5925 5926 5925 5923 5922 5920 5920 5921 5923 5925 5924 5923 5922 5920 5917 5918 5919 5916 5914 5914 5912 5911 5910 5909 5908 5908 5908 5909 5908 5908 5908 5909 5909 5910 5911 5912 5913 5915 5917 5918 5919
5917 5918 5918 5918 5918 5918 5919 5919 5920 5920 5921 5921 5921 5921 5921 5922 5922 5922 5922 5922 5922 5922 5922 5922 5923 5923 5923 5924 5924 5925 5924 5924 5925 5925 5924 5925 5925 5925 5925 5925 5925 5926 5926 5927 5927 5927 5926 5926 5926 5925 5924 5922 5921 5921 5922 5925 5926 5925 5924 5923 5921 5919 5919 5920 5918 5916 5915 5914 5913 5912 5911 5911 5910 5910 5910 5909 5909 5910 5910 5911 5912 5912 5913 5914 5915 5917 5918 5919
5915 5915 5916 5916 5916 5916 5916 5916 5917 5918 5918 5919 5919 5919 5919 5920 5920 5920 5920 5920 5921 5921 5921 5921 5921 5922 5922 5923 5924 5924 5923 5924 5924 5924 5924 5924 5925 5925 5925 5925 5925 5926 5926 5927 5927 5927 5927 5927 5926 5926 5925 5923 5922 5922 5923 5925 5927 5927 5926 5924 5922 5921 5922 5922 5920 5918 5917 5916 5915 5914 5914 5913 5912 5911 5911 5911 5911 5912 5912 5912 5912 5913 5913 5914 5915 5917 5918 5919
5912 5912 5913 5913 5913 5913 5913 5914 5914 5915 5915 5916 5916 5917 5917 5917 5918 5918 5918 5919 5919 5919 5919 5920 5920 5921 5921 5922 5923 5922 5922 5923 5923 5923 5924 5924 5924 5924 5924 5925 5925 5926 5926 5927 5927 5927 5927 5927 5926 5926 5925 5924 5923 5923 5924 5924 5927 5929 5928 5925 5923 5924 5924 5924 5922 5920 5919 5918 5917 5916 5916 5915 5914 5914 5913 5913 5913 5913 5913 5913 5912 5912 5913 5915 5916 5917 5918 5919
5909 5909 5909 5910 5910 5910 5911 5911 5911 5912 5912 5913 5914 5914 5914 5915 5915 5916 5916 5917 5917 5917 5918 5918 5919 5919 5920 5921 5921 5921 5922 5922 5922 5922 5923 5923 5924 5924 5924 5925 5925 5926 5926 5927 5927 5927 5927 5926 5925 5925 5925 5924 5923 5923 5924 5924 5928 5930 5928 5925 5925 5926 5926 5925 5924 5922 5921 5920 5919 5919 5918 5917 5916 5916 5915 5915 5915 5915 5914 5914 5913 5913 5914 5915 5916 5917 5917 5918
5906 5906 5906 5906 5907 5907 5908 5908 5908 5909 5909 5910 5911 5911 5912 5912 5913 5913 5914 5914 5915 5915 5916 5917 5917 5918 5919 5920 5920 5920 5920 5921 5921 5921 5922 5922 5923 5923 5924 5924 5925 5925 5926 5926 5926 5926 5926 5925 5925 5926 5926 5924 5923 5924 5923 5924 5929 5930 5928 5926 5926 5927 5926 5925 5925 5924 5922 5921 5921 5920 5919 5919 5918 5918 5917 5916 5916 5916 5915 5915 5915 5914 5915 5916 5917 5917 5918 5918
5903 5903 5903 5903 5904 5904 5904 5905 5905 5906 5906 5907 5907 5908 5909 5909 5910 5911 5911 5912 5913 5913 5914 5915 5916 5917 5918 5919 5919 5919 5919 5919 5920 5920 5921 5921 5922 5923 5923 5924 5924 5925 5926 5926 5926 5926 5926 5925 5926 5927 5926 5925 5925 5925 5924 5925 5929 5928 5928 5928 5928 5927 5927 5926 5925 5925 5924 5923 5922 5922 5922 5921 5920 5920 5919 5917 5917 5917 5916 5916 5916 5916 5917 5917 5917 5918 5918 5918
5900 5900 5900 5900 5900 5901 5901 5901 5902 5902 5903 5903 5904 5905 5906 5906 5907 5908 5909 5909 5910 5911 5912 5913 5914 5915 5916 5917 5918 5918 5917 5918 5918 5918 5919 5920 5921 5922 5923 5923 5924 5925 5926 5926 5926 5926 5926 5926 5928 5929 5926 5926 5927 5926 5926 5927 5928 5927 5928 5930 5929 5928 5928 5926 5926 5926 5925 5925 5925 5924 5924 5923 5922 5921 5920 5919 5918 5918 5917 5917 5917 5918 5918 5918 5918 5918 5918 5918
5896 5897 5897 5897 5897 5897 5897 5898 5899 5899 5899 5900 5901 5902 5902 5903 5904 5905 5906 5907 5908 5909 5910 5911 5912 5913 5914 5915 5916 5917 5917 5917 5918 5918 5918 5919 5920 5921 5922 5922 5923 5924 5925 5926 5926 5925 5926 5927 5929 5929 5927 5927 5928 5928 5928 5928 5928 5927 5929 5931 5930 5929 5928 5927 5927 5926 5926 5927 5927 5927 5926 5925 5924 5923 5922 5920 5919 5919 5918 5918 5918 5918 5918 5918 5918 5918 5918 5918
5893 5893 5894 5894 5894 5894 5894 5895 5895 5896 5896 5897 5897 5898 5899 5900 5901 5902 5903 5904 5905 5906 5907 5909 5910 5911 5912 5913 5915 5916 5916 5916 5916 5917 5918 5919 5919 5920 5921 5922 5922 5923 5925 5925 5925 5924 5925 5927 5930 5929 5928 5929 5929 5929 5930 5929 5929 5928 5929 5931 5931 5929 5929 5928 5928 5927 5927 5928 5929 5928 5928 5927 5927 5926 5924 5922 5921 5920 5919 5919 5919 5918 5918 5918 5918 5918 5918 5918
5890 5890 5891 5891 5891 5891 5891 5892 5892 5893 5893 5894 5894 5895 5896 5897 5898 5899 5900 5901 5902 5903 5905 5906 5908 5909 5910 5911 5913 5914 5913 5913 5914 5915 5917 5918 5918 5919 5920 5921 5922 5922 5924 5925 5924 5924 5924 5927 5930 5929 5929 5929 5930 5931 5930 5930 5929 5929 5930 5931 5931 5930 5930 5929 5929 5928 5928 5930 5930 5929 5929 5929 5928 5927 5926 5924 5923 5921 5921 5920 5919 5919 5918 5918 5918 5918 5917 5917
5887 5887 5887 5888 5888 5888 5889 5889 5890 5890 5890 5891 5891 5892 5893 5894 5895 5896 5897 5898 5900 5901 5902 5904 5905 5906 5907 5909 5911 5911 5911 5911 5912 5914 5915 5916 5917 5918 5919 5920 5921 5922 5923 5924 5924 5925 5924 5925 5928 5929 5929 5929 5930 5931 5931 5930 5929 5929 5931 5932 5932 5932 5931 5930 5930 5930 5930 5931 5930 5930 5930 5929 5928 5927 5926 5926 5924 5923 5922 5921 5920 5919 5919 5918 5918 5918 5917 5916
5884 5884 5884 5884 5885 5885 5886 5887 5887 5887 5888 5888 5889 5890 5890 5891 5892 5893 5894 5896 5897 5898 5900 5901 5902 5904 5905 5906 5908 5908 5908 5909 5911 5913 5914 5915 5915 5917 5918 5919 5920 5921 5922 5923 5923 5924 5924 5924 5927 5929 5929 5929 5930 5931 5930 5930 5930 5931 5933 5933 5933 5933 5932 5932 5932 5931 5932 5931 5931 5931 5930 5930 5928 5927 5926 5926 5926 5925 5923 5922 5921 5920 5919 5919 5918 5917 5917 5916
5880 5881 5881 5881 5881 5882 5883 5884 5884 5885 5885 5885 5886 5887 5888 5889 5889 5891 5892 5893 5894 5896 5897 5899 5900 5901 5902 5903 5905 5906 5907 5908 5910 5911 5912 5913 5914 5915 5917 5918 5919 5920 5921 5922 5923 5924 5924 5925 5926 5928 5929 5930 5931 5930 5929 5930 5931 5933 5934 5934 5934 5933 5933 5933 5932 5932 5932 5932 5932 5931 5930 5930 5929 5927 5926 5926 5926 5926 5925 5924 5922 5921 5920 5919 5918 5917 5916 5916
5878 5878 5878 5878 5878 5879 5880 5881 5881 5882 5882 5883 5884 5885 5885 5886 5887 5888 5889 5890 5891 5893 5895 5896 5897 5898 5899 5901 5902 5904 5906 5907 5908 5909 5910 5911 5912 5914 5915 5916 5918 5919 5920 5921 5922 5923 5924 5925 5926 5927 5928 5929 5930 5929 5929 5930 5931 5933 5934 5934 5933 5933 5933 5933 5933 5933 5933 5933 5933 5931 5930 5930 5929 5928 5927 5927 5927 5927 5926 5925 5923 5922 5920 5919 5918 5917 5916 5915
5875 5875 5875 5875 5875 5877 5877 5878 5879 5879 5880 5881 5882 5882 5883 5883 5884 5885 5886 5887 5889 5891 5892 5893 5894 5895 5897 5899 5901 5902 5903 5904 5905 5906 5907 5909 5911 5912 5913 5915 5916 5918 5919 5920 5921 5923 5923 5924 5925 5926 5927 5928 5929 5928 5928 5930 5931 5932 5933 5933 5933 5933 5933 5933 5933 5933 5933 5933 5933 5931 5930 5930 5929 5929 5928 5928 5927 5927 5926 5926 5924 5923 5922 5920 5918 5917 5916 5914
5873 5872 5872 5872 5873 5874 5874 5875 5876 5876 5877 5878 5879 5880 5880 5881 5882 5883 5884 5885 5887 5888 5889 5890 5892 5894 5895 5897 5899 5899 5900 5902 5903 5904 5905 5908 5909 5910 5912 5913 5915 5917 5918 5919 5920 5922 5923 5924 5924 5926 5927 5928 5929 5928 5927 5929 5931 5932 5933 5932 5932 5933 5933 5933 5932 5932 5932 5932 5932 5931 5931 5930 5929 5929 5929 5929 5928 5927 5927 5926 5925 5924 5923 5922 5920 5919 5917 5916
5870 5870 5869 5870 5871 5871 5871 5872 5873 5874 5875 5876 5877 5877 5878 5879 5880 5881 5882 5883 5885 5886 5887 5888 5890 5892 5894 5895 5896 5897 5899 5900 5901 5902 5904 5906 5907 5909 5910 5912 5914 5916 5916 5917 5919 5921 5922 5923 5924 5926 5927 5929 5930 5928 5926 5927 5929 5932 5933 5933 5932 5933 5933 5932 5932 5932 5932 5932 5932 5931 5931 5930 5930 5930 5931 5930 5929 5928 5928 5927 5926 5925 5924 5923 5922 5920 5918 5917
5868 5867 5866 5867 5868 5868 5869 5869 5870 5871 5873 5874 5875 5875 5876 5878 5878 5879 5880 5881 5883 5884 5885 5887 5888 5890 5891 5892 5893 5894 5896 5898 5899 5900 5902 5904 5906 5907 5909 5911 5913 5914 5915 5917 5919 5921 5922 5923 5924 5925 5927 5928 5929 5927 5926 5927 5929 5932 5933 5933 5933 5933 5933 5932 5931 5932 5933 5932 5931 5931 5931 5931 5931 5931 5931 5931 5930 5928 5927 5927 5927 5926 5925 5924 5922 5920 5918 5916
5865 5864 5864 5865 5866 5866 5866 5867 5868 5869 5870 5871 5872 5873 5875 5876 5877 5877 5878 5879 5881 5882 5883 5885 5886 5888 5889 5889 5891 5893 5895 5897 5898 5899 5900 5902 5904 5905 5907 5910 5911 5912 5914 5917 5919 5920 5922 5922 5922 5923 5925 5927 5927 5926 5926 5927 5929 5931 5932 5932 5932 5932 5933 5932 5931 5931 5931 5931 5931 5931 5932 5932 5932 5931 5932 5932 5930 5928 5927 5927 5926 5926 5925 5924 5921 5918 5916 5916
5863 5862 5862 5862 5863 5864 5864 5865 5866 5867 5868 5869 5870 5871 5872 5874 5875 5876 5877 5878 5879 5880 5882 5883 5885 5886 5887 5888 5890 5892 5894 5895 5896 5897 5899 5900 5902 5904 5906 5908 5910 5912 5914 5917 5918 5919 5920 5921 5921 5921 5922 5924 5925 5925 5927 5928 5929 5931 5932 5931 5931 5931 5932 5933 5932 5931 5931 5932 5932 5932 5932 5932 5931 5931 5932 5932 5930 5929 5928 5926 5925 5925 5924 5922 5919 5916 5915 5914
5861 5860 5860 5861 5861 5862 5862 5863 5864 5865 5866 5867 5868 5869 5870 5872 5873 5874 5875 5876 5878 5879 5880 5882 5883 5884 5885 5887 5889 5891 5892 5894 5895 5896 5897 5899 5901 5903 5905 5907 5909 5911 5913 5916 5916 5917 5919 5920 5921 5921 5921 5922 5923 5924 5926 5928 5929 5930 5931 5930 5930 5930 5931 5933 5933 5933 5933 5933 5933 5932 5932 5932 5931 5931 5932 5932 5930 5929 5928 5926 5925 5924 5923 5920 5918 5915 5913 5913
5860 5859 5859 5859 5859 5860 5860 5861 5862 5863 5864 5865 5866 5867 5869 5870 5871 5872 5873 5875 5876 5877 5879 5880 5881 5883 5884 5886 5888 5889 5891 5892 5893 5894 5895 5898 5900 5901 5904 5906 5908 5910 5912 5914 5915 5916 5918 5919 5921 5921 5920 5921 5923 5923 5925 5927 5929 5929 5929 5929 5929 5930 5931 5932 5933 5934 5933 5933 5933 5931 5931 5931 5931 5931 5932 5931 5929 5928 5927 5926 5926 5924 5922 5919 5916 5914 5912 5911
5859 5858 5858 5858 5858 5858 5859 5860 5860 5861 5862 5863 5865 5866 5867 5869 5870 5871 5872 5873 5875 5876 5877 5879 5880 5882 5883 5885 5887 5888 5890 5891 5892 5892 5894 5897 5898 5900 5903 5905 5907 5908 5910 5913 5914 5916 5917 5919 5919 5920 5920 5921 5922 5924 5925 5926 5927 5927 5927 5927 5928 5929 5930 5931 5932 5933 5934 5933 5932 5931 5930 5931 5931 5931 5931 5930 5928 5927 5925 5925 5925 5924 5921 5918 5915 5914 5912 5910
5858 5857 5857 5857 5857 5857 5858 5858 5859 5860 5861 5862 5863 5864 5866 5867 5869 5870 5871 5873 5874 5875 5876 5878 5879 5880 5882 5884 5885 5887 5889 5889 5890 5891 5893 5895 5897 5899 5902 5904 5905 5907 5909 5912 5913 5915 5916 5917 5918 5919 5920 5921 5922 5924 5924 5925 5926 5926 5926 5927 5928 5930 5930 5931 5931 5932 5933 5934 5933 5931 5931 5931 5931 5931 5930 5929 5927 5926 5925 5924 5924 5923 5921 5918 5915 5913 5912 5911
5857 5857 5857 5857 5856 5856 5857 5858 5858 5859 5860 5861 5863 5863 5865 5866 5868 5869 5871 5872 5873 5874 5876 5877 5878 5879 5881 5883 5884 5886 5887 5888 5888 5890 5892 5893 5896 5899 5900 5902 5904 5906 5909 5911 5912 5914 5915 5916 5917 5918 5919 5920 5922 5924 5924 5925 5926 5926 5926 5927 5928 5929 5931 5932 5932 5932 5933 5933 5932 5932 5931 5931 5931 5931 5930 5929 5927 5926 5925 5924 5924 5923 5921 5918 5915 5913 5912 5911
5856 5856 5856 5856 5856 5856 5856 5857 5858 5859 5860 5861 5862 5863 5864 5866 5868 5869 5870 5872 5873 5874 5875 5876 5877 5879 5880 5882 5883 5884 5886 5887 5888 5889 5891 5892 5894 5897 5899 5901 5903 5906 5909 5911 5912 5913 5914 5915 5917 5918 5919 5921 5923 5924 5924 5925 5925 5925 5926 5927 5928 5929 5931 5933 5933 5932 5932 5932 5931 5931 5931 5931 5931 5931 5931 5929 5928 5926 5925 5924 5924 5923 5921 5919 5917 5914 5913 5912
5856 5855 5856 5856 5856 5856 5856 5857 5858 5858 5860 5861 5862 5863 5865 5866 5867 5869 5870 5872 5873 5873 5874 5875 5877 5878 5879 5881 5882 5883 5885 5886 5887 5889 5890 5891 5893 5895 5897 5900 5903 5906 5910 5911 5911 5912 5913 5916 5917 5918 5919 5921 5922 5924 5924 5924 5925 5926 5927 5927 5928 5929 5930 5932 5932 5932 5932 5931 5930 5930 5930 5931 5931 5931 5930 5929 5928 5927 5926 5925 5925 5924 5922 5920 5918 5916 5914 5912
5855 5855 5855 5856 5856 5856 5856 5857 5858 5859 5860 5861 5862 5863 5865 5866 5867 5868 5870 5871 5872 5873 5873 5875 5876 5877 5879 5880 5881 5883 5885 5885 5886 5888 5889 5891 5893 5895 5898 5900 5903 5906 5908 5909 5910 5911 5914 5916 5917 5918 5919 5920 5921 5922 5923 5923 5925 5926 5927 5927 5928 5929 5930 5930 5931 5931 5931 5931 5930 5929 5930 5930 5930 5930 5930 5929 5929 5928 5927 5926 5926 5924 5923 5921 5918 5916 5915 5914
5854 5854 5855 5855 5855 5855 5856 5857 5858 5859 5860 5861 5862 5863 5864 5865 5866 5867 5869 5870 5872 5873 5873 5874 5876 5877 5879 5880 5882 5883 5884 5885 5886 5887 5889 5891 5893 5895 5898 5900 5902 5905 5906 5908 5910 5911 5914 5915 5917 5918 5918 5919 5920 5921 5922 5922 5924 5925 5926 5926 5928 5928 5929 5930 5930 5930 5931 5931 5929 5929 5929 5929 5930 5930 5930 5930 5929 5929 5928 5927 5926 5924 5923 5921 5919 5917 5916 5915
5854 5854 5854 5855 5855 5855 5856 5856 5858 5859 5860 5861 5862 5863 5863 5864 5866 5867 5867 5869 5871 5873 5874 5875 5876 5877 5879 5880 5882 5883 5884 5885 5886 5887 5889 5891 5893 5895 5897 5900 5902 5904 5905 5907 5909 5910 5911 5913 5915 5916 5917 5918 5919 5920 5920 5921 5922 5924 5925 5926 5927 5927 5928 5929 5930 5930 5930 5930 5929 5928 5928 5929 5930 5930 5930 5930 5929 5928 5928 5927 5926 5924 5923 5921 5919 5917 5916 5915
5853 5853 5854 5854 5855 5855 5855 5856 5857 5859 5860 5861 5862 5863 5863 5864 5865 5866 5866 5867 5870 5873 5875 5876 5877 5878 5880 5881 5882 5883 5885 5886 5886 5887 5889 5891 5893 5895 5896 5899 5902 5903 5905 5907 5908 5909 5910 5912 5913 5914 5915 5917 5918 5919 5919 5920 5921 5922 5923 5925 5925 5926 5927 5928 5929 5930 5930 5929 5929 5928 5928 5928 5929 5930 5930 5929 5928 5928 5927 5926 5925 5924 5923 5921 5919 5917 5916 5916
5852 5853 5853 5854 5854 5855 5855 5856 5857 5859 5860 5861 5862 5862 5863 5864 5865 5866 5866 5866 5869 5873 5876 5877 5878 5880 5881 5882 5883 5883 5884 5886 5887 5887 5889 5891 5893 5894 5896 5899 5901 5902 5905 5906 5908 5909 5910 5911 5912 5914 5914 5915 5917 5917 5918 5918 5919 5920 5922 5923 5924 5924 5926 5927 5928 5930 5929 5928 5928 5928 5927 5928 5928 5929 5929 5928 5928 5927 5927 5926 5925 5924 5923 5921 5920 5919 5918 5917
5851 5852 5853 5853 5854 5854 5855 5856 5857 5858 5859 5860 5861 5862 5863 5864 5865 5866 5866 5866 5868 5871 5875 5878 5879 5881 5882 5882 5884 5884 5885 5886 5887 5888 5889 5890 5892 5895 5897 5898 5900 5902 5904 5905 5908 5909 5909 5911 5912 5912 5914 5915 5915 5916 5916 5916 5918 5920 5921 5921 5923 5924 5925 5926 5927 5929 5928 5927 5927 5927 5927 5927 5927 5928 5928 5928 5927 5928 5927 5926 5925 5924 5923 5922 5921 5920 5919 5917
5851 5851 5852 5853 5854 5854 5855 5856 5857 5858 5859 5860 5861 5862 5864 5865 5866 5866 5866 5866 5868 5871 5874 5876 5878 5880 5882 5882 5884 5885 5886 5887 5888 5889 5890 5891 5892 5894 5896 5898 5899 5901 5903 5905 5907 5908 5909 5910 5911 5911 5913 5914 5914 5914 5914 5914 5917 5919 5919 5920 5922 5924 5925 5926 5926 5928 5928 5927 5926 5926 5926 5925 5926 5927 5928 5928 5928 5927 5927 5927 5926 5925 5924 5923 5922 5921 5920 5918
5850 5850 5851 5852 5853 5854 5855 5855 5856 5857 5858 5860 5861 5863 5865 5866 5866 5867 5866 5866 5869 5872 5873 5875 5877 5879 5880 5882 5883 5885 5886 5888 5889 5890 5891 5892 5893 5895 5896 5898 5899 5900 5902 5904 5906 5907 5908 5909 5910 5911 5912 5913 5913 5914 5914 5914 5916 5917 5919 5921 5922 5923 5925 5925 5926 5927 5927 5927 5925 5925 5924 5924 5926 5928 5928 5928 5928 5927 5927 5927 5926 5925 5924 5923 5922 5921 5920 5919
5848 5849 5850 5851 5852 5853 5854 5855 5855 5856 5858 5859 5861 5863 5865 5866 5866 5867 5867 5867 5870 5874 5875 5876 5877 5879 5879 5881 5883 5885 5887 5889 5890 5890 5891 5892 5894 5895 5897 5898 5899 5900 5901 5903 5905 5907 5907 5909 5910 5910 5911 5912 5913 5914 5914 5915 5917 5917 5919 5921 5923 5924 5925 5925 5926 5926 5927 5927 5926 5924 5924 5924 5926 5928 5928 5928 5927 5927 5927 5926 5925 5924 5923 5922 5921 5921 5920 5919
5847 5848 5849 5850 5851 5852 5853 5854 5855 5856 5857 5859 5860 5862 5864 5865 5866 5867 5868 5869 5872 5874 5875 5876 5877 5878 5880 5881 5883 5885 5888 5890 5890 5891 5892 5893 5894 5895 5897 5898 5899 5900 5901 5904 5905 5906 5907 5908 5909 5910 5911 5912 5913 5913 5914 5915 5917 5918 5919 5921 5923 5924 5925 5925 5925 5926 5927 5927 5926 5925 5925 5926 5926 5927 5927 5927 5927 5926 5926 5926 5925 5924 5923 5922 5921 5920 5920 5919
5846 5847 5848 5849 5850 5851 5852 5854 5854 5855 5856 5858 5859 5861 5864 5865 5866 5867 5869 5870 5871 5872 5874 5875 5876 5877 5879 5881 5882 5885 5888 5890 5890 5891 5892 5893 5894 5896 5897 5897 5899 5900 5901 5903 5904 5905 5906 5907 5908 5910 5911 5912 5913 5913 5914 5915 5917 5918 5918 5920 5921 5923 5923 5924 5925 5926 5926 5925 5925 5925 5926 5926 5926 5926 5926 5926 5926 5925 5925 5925 5924 5923 5923 5922 5921 5920 5920 5919
5845 5846 5847 5848 5849 5850 5851 5852 5853 5854 5855 5857 5859 5861 5864 5865 5867 5868 5869 5870 5871 5871 5872 5874 5875 5878 5879 5880 5882 5885 5888 5890 5890 5891 5892 5893 5894 5895 5897 5897 5898 5899 5900 5901 5903 5904 5905 5906 5908 5910 5912 5912 5913 5913 5914 5915 5917 5918 5919 5919 5919 5920 5921 5923 5924 5925 5925 5924 5923 5924 5924 5925 5925 5925 5925 5925 5926 5926 5926 5924 5923 5923 5923 5922 5921 5920 5919 5919
5843 5844 5846 5847 5848 5849 5850 5851 5852 5853 5855 5857 5859 5861 5863 5865 5866 5867 5869 5870 5871 5871 5872 5874 5877 5878 5878 5880 5883 5885 5887 5888 5889 5889 5891 5893 5894 5895 5896 5897 5897 5898 5899 5900 5901 5902 5904 5905 5908 5911 5912 5912 5912 5913 5914 5915 5916 5918 5919 5919 5919 5919 5920 5921 5922 5922 5924 5924 5923 5922 5923 5923 5923 5924 5924 5925 5926 5927 5926 5925 5924 5923 5923 5923 5922 5921 5919 5919
5842 5843 5845 5846 5848 5849 5850 5850 5851 5852 5854 5856 5858 5860 5861 5863 5864 5866 5869 5870 5871 5871 5872 5874 5877 5877 5878 5880 5882 5883 5885 5886 5887 5888 5889 5891 5893 5894 5895 5896 5896 5897 5898 5900 5900 5901 5903 5905 5907 5910 5911 5911 5912 5912 5913 5914 5915 5916 5917 5918 5919 5919 5920 5921 5920 5921 5922 5922 5922 5922 5922 5921 5922 5923 5924 5924 5925 5926 5926 5925 5924 5923 5923 5923 5922 5921 5920 5919
5841 5843 5844 5846 5847 5848 5849 5849 5850 5850 5851 5853 5856 5858 5860 5861 5862 5864 5867 5869 5870 5872 5873 5875 5876 5876 5877 5879 5880 5882 5883 5883 5884 5886 5888 5891 5892 5893 5893 5894 5895 5896 5897 5899 5900 5902 5903 5904 5907 5909 5909 5910 5911 5912 5913 5914 5915 5915 5915 5917 5918 5919 5920 5920 5920 5921 5921 5920 5921 5922 5921 5921 5922 5923 5923 5924 5924 5925 5925 5924 5924 5923 5923 5922 5921 5920 5920 5919
5840 5842 5843 5844 5845 5847 5848 5849 5850 5851 5851 5852 5854 5856 5859 5861 5861 5863 5864 5866 5869 5871 5873 5875 5876 5876 5877 5878 5879 5881 5881 5881 5883 5885 5888 5890 5890 5891 5892 5892 5893 5895 5896 5897 5899 5902 5903 5904 5906 5908 5907 5908 5910 5912 5913 5913 5914 5914 5914 5915 5916 5917 5918 5918 5919 5921 5920 5920 5921 5921 5920 5920 5921 5922 5922 5923 5924 5924 5923 5923 5923 5923 5922 5920 5920 5920 5920 5919
5838 5839 5840 5842 5843 5845 5846 5848 5850 5851 5852 5853 5854 5855 5858 5860 5861 5862 5862 5864 5868 5871 5872 5874 5876 5876 5876 5877 5878 5878 5879 5880 5882 5885 5886 5888 5888 5889 5890 5891 5892 5893 5894 5896 5898 5900 5902 5904 5905 5906 5906 5907 5909 5910 5911 5912 5913 5914 5914 5914 5914 5915 5915 5916 5916 5917 5916 5917 5919 5920 5919 5919 5920 5921 5922 5922 5923 5923 5923 5922 5922 5922 5921 5920 5920 5920 5919 5918
5836 5836 5837 5839 5841 5842 5844 5845 5847 5849 5851 5852 5853 5854 5856 5858 5859 5860 5861 5862 5865 5868 5870 5873 5875 5875 5875 5876 5877 5877 5877 5879 5881 5882 5885 5886 5887 5888 5889 5890 5892 5892 5893 5896 5897 5899 5901 5902 5903 5905 5906 5906 5907 5908 5910 5911 5912 5913 5913 5912 5912 5911 5911 5911 5912 5912 5912 5915 5916 5917 5918 5918 5919 5920 5921 5921 5922 5922 5922 5922 5922 5922 5921 5921 5921 5920 5918 5917
5832 5832 5833 5836 5838 5840 5841 5842 5844 5847 5848 5850 5851 5853 5854 5855 5856 5858 5860 5862 5863 5863 5866 5870 5872 5872 5873 5875 5876 5877 5877 5878 5879 5880 5882 5884 5885 5887 5888 5890 5891 5892 5893 5895 5897 5897 5899 5900 5902 5903 5905 5906 5906 5907 5909 5910 5911 5912 5911 5910 5909 5909 5909 5909 5910 5910 5912 5913 5914 5915 5916 5916 5917 5918 5919 5920 5920 5921 5921 5921 5921 5921 5921 5921 5921 5919 5917 5916
5828 5829 5831 5834 5836 5837 5839 5840 5842 5844 5845 5847 5849 5851 5852 5852 5852 5854 5857 5860 5860 5860 5863 5866 5868 5869 5872 5873 5875 5876 5877 5878 5879 5880 5881 5883 5884 5886 5888 5889 5891 5891 5893 5895 5896 5896 5897 5898 5900 5902 5904 5905 5906 5907 5908 5909 5910 5910 5910 5908 5907 5908 5908 5909 5909 5910 5911 5912 5913 5913 5915 5915 5916 5917 5918 5919 5919 5919 5919 5919 5920 5920 5920 5919 5919 5918 5916 5914
5825 5827 5829 5832 5834 5835 5836 5838 5840 5841 5843 5844 5846 5848 5849 5848 5849 5851 5853 5855 5858 5859 5861 5863 5865 5866 5869 5872 5873 5875 5877 5879 5880 5881 5882 5884 5885 5886 5887 5889 5891 5892 5893 5894 5895 5895 5895 5896 5898 5900 5902 5903 5904 5905 5907 5908 5909 5909 5908 5907 5906 5906 5907 5908 5909 5909 5910 5912 5912 5913 5914 5914 5915 5916 5917 5917 5918 5918 5918 5918 5918 5918 5918 5917 5917 5917 5915 5913